This is the latest recevied weather packets stored in our database for station/object M0TUM-1. If no packets are shown the sender has not sent any weather packets the latest 10 day(s).
| Time | Temp. | Humidity | Pressure | Rain* | Wind** | Luminosity | Snow |
|---|---|---|---|---|---|---|---|
| 1778067975 | 9.44° C | 86% | 1012.6 hPa | 0 mm | - | 131 W/m² | - |
| 1778067673 | 9.44° C | 87% | 1012.9 hPa | 0 mm | - | 104 W/m² | - |
| 1778067371 | 9.44° C | 87% | 1012.9 hPa | 0 mm | - | 83 W/m² | - |
| 1778067068 | 9.44° C | 87% | 1013 hPa | 1.27 mm | - | 90 W/m² | - |
| 1778066764 | 9.44° C | 87% | 1012.9 hPa | 1.27 mm | - | 83 W/m² | - |
| 1778066462 | 9.44° C | 87% | 1012.8 hPa | 0 mm | - | 118 W/m² | - |
| 1778066159 | 9.44° C | 87% | 1012.8 hPa | 0 mm | - | 117 W/m² | - |
| 1778065856 | 9.44° C | 87% | 1012.7 hPa | 1.78 mm | - | 96 W/m² | - |
| 1778065554 | 10° C | 87% | 1012.7 hPa | 3.05 mm | - | 111 W/m² | - |
| 1778065251 | 10° C | 87% | 1012.7 hPa | 3.05 mm | - | 106 W/m² | - |
| 1778064947 | 9.44° C | 87% | 1012.9 hPa | 3.05 mm | - | 129 W/m² | - |
| 1778064644 | 8.89° C | 87% | 1013 hPa | 1.27 mm | - | 120 W/m² | - |
| 1778064343 | 9.44° C | 87% | 1012.7 hPa | 1.78 mm | - | 109 W/m² | - |
| 1778064040 | 9.44° C | 87% | 1012.9 hPa | 1.78 mm | - | 124 W/m² | - |
| 1778063737 | 9.44° C | 86% | 1012.7 hPa | 1.27 mm | - | 154 W/m² | - |
| 1778063433 | 9.44° C | 86% | 1012.7 hPa | 1.27 mm | - | 161 W/m² | - |
| 1778063132 | 9.44° C | 86% | 1012.6 hPa | 3.05 mm | - | 110 W/m² | - |
| 1778062829 | 9.44° C | 85% | 1012.5 hPa | 3.05 mm | - | 87 W/m² | - |
| 1778062526 | 9.44° C | 85% | 1012.8 hPa | 1.78 mm | - | 107 W/m² | - |
| 1778062223 | 9.44° C | 85% | 1012.8 hPa | 1.78 mm | - | 139 W/m² | - |
| 1778061921 | 10° C | 84% | 1012.7 hPa | 0 mm | - | 140 W/m² | - |
| 1778061619 | 10° C | 83% | 1012.6 hPa | 0 mm | - | 147 W/m² | - |
| 1778061318 | 10° C | 83% | 1012.5 hPa | 0 mm | - | 131 W/m² | - |
| 1778061013 | 10° C | 83% | 1012.4 hPa | 0 mm | - | 170 W/m² | - |
| 1778060711 | 10° C | 83% | 1012.4 hPa | 0 mm | - | 173 W/m² | - |
* Rain latest hour (hover to see other rain measurements)
** Current wind speed in m/s (hover to see current wind gust speed)